Wichita, KS

4:12 PM CST on December 08, 2016 (GMT -0600)
Wichita Eisenhower National Airport

Weather History for KICT - March, 2013

Change the Weather History Date:

Friday, March 8, 2013

  Actual Average Record
Temperature  
Mean Temperature 54 °F 44 °F  
Max Temperature 62 °F 55 °F 80 °F (1977)
Min Temperature 45 °F 33 °F 0 °F (1967)
Degree Days  
Heating Degree Days 11 21  
Month to date heating degree days 207 177  
Since 1 July heating degree days 3478 3817  
Cooling Degree Days 0 0  
Month to date cooling degree days 0 0  
Year to date cooling degree days 0 0  
Growing Degree Days 4 (Base 50)    
Moisture  
Dew Point 40 °F    
Average Humidity 62    
Maximum Humidity 77    
Minimum Humidity 46    
Precipitation  
Precipitation T in 0.08 in 1.23 in (1973)
Month to date precipitation 0.04 0.58  
Year to date precipitation 3.06 2.59  
Snow  
Snow 0.00 in 0.10 in 4.40 in (1958)
Month to date snowfall 0.0 0.7  
Since 1 July snowfall 24.5 13.1  
Snow Depth 0.00 in    
Sea Level Pressure  
Sea Level Pressure 29.99 in    
Wind  
Wind Speed 18 mph (SSE)    
Max Wind Speed 25 mph    
Max Gust Speed 35 mph    
Visibility 10 miles    
Events Rain    
T = Trace of Precipitation, MM = Missing Value Source: NWS Daily Summary

Daily Weather History Graph

Daily Weather History Graph

Search for Another Location

Airport or City:

Trip Planner

Search our weather history database for the weather conditions in past years. The results will help you decide how hot, cold, wet, or windy it might be!

Date:

Astronomy

Mar. 08, 2013 Rise Set
Actual Time 6:50 AM CST 6:30 PM CST
Civil Twilight 6:24 AM CST 6:56 PM CST
Nautical Twilight 5:54 AM CST 7:27 PM CST
Astronomical Twilight 5:23 AM CST 7:57 PM CST
Moon 4:32 AM CST 3:29 PM CST
Length of Visible Light 12h 32m
Length of Day
11h 39m
Waning Crescent, 11% of the Moon is Illuminated
Mar 8
Waning Crescent
Mar 11
New
Mar 19
First Quarter
Mar 27
Full
Apr 2
Last Quarter

Hourly Weather History & Observations

Time (CST) Temp. Windchill Dew Point Humidity Pressure Visibility Wind Dir Wind Speed Gust Speed Precip Events Conditions
12:53 AM 48.9 °F - 30.0 °F 48% 30.05 in 10.0 mi SE 11.5 mph - N/A   Scattered Clouds
1:53 AM 46.9 °F - 30.0 °F 52% 30.06 in 10.0 mi SE 10.4 mph - N/A   Scattered Clouds
2:53 AM 45.0 °F 40.1 °F 30.0 °F 56% 30.05 in 10.0 mi ESE 9.2 mph - N/A   Partly Cloudy
3:53 AM 46.9 °F - 30.9 °F 54% 30.05 in 10.0 mi SE 11.5 mph - N/A   Mostly Cloudy
4:53 AM 48.0 °F - 30.9 °F 52% 30.04 in 10.0 mi SE 13.8 mph - N/A   Overcast
5:53 AM 48.9 °F - 30.9 °F 50% 30.06 in 10.0 mi SE 12.7 mph - N/A   Overcast
6:53 AM 48.0 °F - 32.0 °F 54% 30.06 in 10.0 mi ESE 10.4 mph - N/A   Overcast
7:53 AM 48.0 °F - 32.0 °F 54% 30.08 in 10.0 mi SE 13.8 mph - N/A   Mostly Cloudy
8:53 AM 50.0 °F - 33.8 °F 54% 30.07 in 10.0 mi SE 18.4 mph - N/A   Overcast
9:53 AM 52.0 °F - 35.1 °F 53% 30.06 in 10.0 mi SSE 18.4 mph - N/A   Overcast
10:53 AM 55.9 °F - 39.0 °F 53% 30.05 in 10.0 mi SSE 21.9 mph 26.5 mph N/A   Overcast
11:53 AM 57.9 °F - 42.1 °F 56% 30.05 in 10.0 mi South 23.0 mph 28.8 mph N/A   Overcast
12:00 PM 59.0 °F - 42.8 °F 55% 30.04 in 10.0 mi SSE 20.7 mph 27.6 mph N/A   Overcast
12:53 PM 59.0 °F - 43.0 °F 55% 30.01 in 10.0 mi SSE 20.7 mph 27.6 mph N/A   Overcast
1:53 PM 61.0 °F - 45.0 °F 56% 29.97 in 10.0 mi SSE 18.4 mph - N/A   Mostly Cloudy
2:20 PM 60.8 °F - 46.4 °F 59% 29.96 in 10.0 mi SSE 18.4 mph - N/A   Mostly Cloudy
2:30 PM 60.8 °F - 46.4 °F 59% 29.96 in 10.0 mi SSE 18.4 mph - N/A   Overcast
2:53 PM 60.1 °F - 46.0 °F 60% 29.96 in 10.0 mi SSE 18.4 mph 27.6 mph N/A   Mostly Cloudy
3:53 PM 57.9 °F - 46.0 °F 65% 29.94 in 10.0 mi SSE 20.7 mph 29.9 mph N/A   Overcast
4:15 PM 57.2 °F - 46.4 °F 67% 29.94 in 9.0 mi SSE 19.6 mph 28.8 mph 0.00 in Rain Light Rain
4:53 PM 55.0 °F - 45.0 °F 69% 29.93 in 10.0 mi SE 19.6 mph 26.5 mph 0.00 in   Overcast
5:35 PM 55.4 °F - 44.6 °F 67% 29.93 in 10.0 mi SE 21.9 mph 28.8 mph N/A   Overcast
5:53 PM 55.0 °F - 45.0 °F 69% 29.93 in 10.0 mi SE 20.7 mph 27.6 mph N/A   Overcast
6:53 PM 54.0 °F - 46.0 °F 75% 29.93 in 10.0 mi SSE 20.7 mph 28.8 mph N/A   Overcast
7:53 PM 54.0 °F - 46.0 °F 75% 29.93 in 10.0 mi SSE 21.9 mph 28.8 mph N/A   Overcast
8:53 PM 54.0 °F - 46.0 °F 75% 29.92 in 10.0 mi SSE 20.7 mph 28.8 mph N/A   Overcast
9:53 PM 54.0 °F - 45.0 °F 72% 29.91 in 10.0 mi SSE 19.6 mph - N/A   Overcast
10:53 PM 54.0 °F - 45.0 °F 72% 29.89 in 10.0 mi SSE 20.7 mph 31.1 mph N/A   Overcast
11:53 PM 55.0 °F - 45.0 °F 69% 29.88 in 10.0 mi South 23.0 mph 34.5 mph N/A   Overcast